Regional Weather Roundup
Issued by NWS Kansas City/Pleasant Hill, MO

Home | Current Version | Previous Version | Graphics & Text | Print | Product List | Glossary Off
Versions: 1 2 3 4 5 6 7 8 9 10 11 12 13 14 15 16 17 18 19 20 21 22 23 24 25 26 27 28 29 30 31 32 33 34 35 36 37 38 39 40 41 42 43 44 45 46 47 48 49 50

000
ASUS43 KEAX 230011
RWREAX

WEATHER ROUNDUP FOR EASTERN KANSAS AND NORTHWEST MISSOURI
NATIONAL WEATHER SERVICE KANSAS CITY/PLEASANT HILL MO
700 PM CDT FRI MAY 22 2015

KSZ040-057-103>105-MOZ028-029-037-043-230100-
...KANSAS CITY METROPOLITAN AREA...

CITY           SKY/WX    TMP DP  RH WIND       PRES   REMARKS
K.C. INTL      CLOUDY    63  50  62 SE8       30.21F
6HR MIN TEMP:  61; 6HR MAX TEMP:  66; 6HR PCP: TRACE;

K.C. DOWNTOWN  CLOUDY    65  48  54 SE7       30.20F
6HR MIN TEMP:  64; 6HR MAX TEMP:  68;

LEES SUMMIT    CLOUDY    62  51  67 SE6       30.22F
6HR MIN TEMP:  62; 6HR MAX TEMP:  66; 6HR PCP:  0.01;

OLATHE - IXD   CLOUDY    62  50  64 E8        30.20F
6HR MIN TEMP:  61; 6HR MAX TEMP:  63; 6HR PCP: TRACE;

OLATHE - OJC   CLOUDY    62  52  69 E5        30.20F
6HR MIN TEMP:  61; 6HR MAX TEMP:  63; 6HR PCP: TRACE;

LAWRENCE       CLOUDY    63  49  60 E8        30.19F

$$

MOZ001>008-011>017-020>025-030>033-038>040-044>046-053-054-230100-
...NORTHERN AND CENTRAL MISSOURI...

CITY           SKY/WX    TMP DP  RH WIND       PRES   REMARKS
ST. JOSEPH     CLOUDY    65  51  60 E6        30.20F
6HR MIN TEMP:  62; 6HR MAX TEMP:  66;

MOSBY          CLOUDY    64  48  55 S3        30.22S
WARRENSBURG    LGT RAIN  63  54  72 CALM      30.22F
WHITEMAN AFB   CLOUDY    65  52  63 E2        30.21F
6HR MIN TEMP:  63; 6HR MAX TEMP:  67;

CLINTON        CLOUDY    64  55  72 CALM      30.22F
SEDALIA        CLOUDY    66  51  58 SE5       30.23S
6HR MIN TEMP:  63; 6HR MAX TEMP:  70;

WARSAW         NOT AVBL
CHILLICOTHE      N/A     69  54  58 CALM      30.23F
6HR MIN TEMP:  66; 6HR MAX TEMP:  71;

KIRKSVILLE     CLOUDY    66  53  63 W5        30.24S
6HR MIN TEMP:  66; 6HR MAX TEMP:  71;


$$

MOZ041-047>049-056>058-063>065-088>090-097-230100-
...EASTERN AND SOUTHERN MISSOURI...

CITY           SKY/WX    TMP DP  RH WIND       PRES   REMARKS
ST. LOUIS INTL CLOUDY    73  48  41 W5        30.23S
6HR MIN TEMP:  73; 6HR MAX TEMP:  76;

SPIRIT OF STL  PTSUNNY   71  54  54 W5        30.22S
COLUMBIA       CLOUDY    67  51  56 SE3       30.22F
JEFFERSON CITY CLOUDY    69  51  52 E3        30.22F
ROLLA          PTSUNNY   66  53  63 SE5       30.22F
OSAGE BEACH    CLOUDY    66  52  59 CALM      30.22S
SPRINGFIELD    CLOUDY    63  47  55 SE13      30.19F
BRANSON        CLOUDY    61  50  67 SE7       30.21F
JOPLIN         CLOUDY    64  50  60 SE9       30.18F
WEST PLAINS    CLOUDY    63  48  58 E3        30.26S

$$

IAZ060-094-KSZ022-034>040-054-083-096-NEZ052-066-093-230100-
...KANSAS...SOUTHEAST NEBRASKA AND IOWA...

CITY           SKY/WX    TMP DP  RH WIND       PRES   REMARKS
TOPEKA         CLOUDY    62  45  53 SE12      30.19F
6HR MIN TEMP:  62; 6HR MAX TEMP:  65;

MANHATTAN      CLOUDY    63  47  55 SE13      30.15F
EMPORIA        CLOUDY    61  47  59 SE14      30.17F
CHANUTE        CLOUDY    62  49  62 E6        30.17F
WICHITA        CLOUDY    61  52  72 SE14      30.12F
OMAHA          PTSUNNY   67  43  41 E8        30.18F
LINCOLN        CLOUDY    62  46  55 SE13      30.18F
FALLS CITY     PTSUNNY   64  45  49 SE12      30.18F
LAMONI         CLOUDY    68  56  65 N3        30.21F
DES MOINES     CLOUDY    71  46  40 SW13      30.19S

$$




USA.gov is the U.S. government's official web portal to all federal, state and local government web resources and services.